| time (UTC) | temp C | wind direction | speed KPH | gust KPH | rain 1hr cm | rain 24hr cm | rain mn cm | humidity % | barometer mb |
| 20260505224531 | 25 | 296 | 9.7 | 24.1 | 0.00 | 0.00 | 0.00 | 45 | 1013.5 |
| 20260505223107 | 25 | 301 | 9.7 | 24.1 | 0.00 | 0.00 | 0.00 | 46 | 1013.6 |
| 20260505220031 | 25 | 298 | 9.7 | 25.7 | 0.00 | 0.00 | 0.00 | 48 | 1014.0 |
| 20260505214532 | 24 | 295 | 9.7 | 22.5 | 0.00 | 0.00 | 0.00 | 48 | 1014.1 |
| 20260505211535 | 23 | 293 | 8.0 | 22.5 | 0.00 | 0.00 | 0.00 | 50 | 1014.3 |
| 20260505210106 | 23 | 296 | 8.0 | 20.9 | 0.00 | 0.00 | 0.00 | 51 | 1014.5 |
| 20260505204532 | 23 | 298 | 9.7 | 20.9 | 0.00 | 0.00 | 0.00 | 50 | 1014.6 |
| 20260505203034 | 23 | 302 | 8.0 | 22.5 | 0.00 | 0.00 | 0.00 | 51 | 1014.8 |
| 20260505201534 | 23 | 294 | 9.7 | 25.7 | 0.00 | 0.00 | 0.00 | 50 | 1014.8 |
| 20260505200037 | 23 | 296 | 11.3 | 24.1 | 0.00 | 0.00 | 0.00 | 50 | 1015.0 |
| 20260505194530 | 23 | 300 | 11.3 | 29.0 | 0.00 | 0.00 | 0.00 | 51 | 1015.2 |
| 20260505191530 | 22 | 302 | 9.7 | 25.7 | 0.00 | 0.00 | 0.00 | 51 | 1015.3 |
| 20260505190032 | 22 | 304 | 9.7 | 27.4 | 0.00 | 0.00 | 0.00 | 52 | 1015.3 |
| 20260505184648 | 22 | 303 | 9.7 | 27.4 | 0.00 | 0.00 | 0.00 | 52 | 1015.5 |
| 20260505183031 | 21 | 298 | 11.3 | 30.6 | 0.00 | 0.00 | 0.00 | 53 | 1015.6 |
| 20260505181531 | 21 | 302 | 11.3 | 27.4 | 0.00 | 0.00 | 0.00 | 53 | 1015.5 |
| 20260505174535 | 21 | 304 | 8.0 | 22.5 | 0.00 | 0.00 | 0.00 | 55 | 1015.6 |
| 20260505171531 | 20 | 301 | 11.3 | 27.4 | 0.00 | 0.00 | 0.00 | 58 | 1015.6 |
| 20260505170037 | 19 | 302 | 11.3 | 25.7 | 0.00 | 0.00 | 0.00 | 60 | 1015.5 |
| 20260505164530 | 19 | 299 | 11.3 | 30.6 | 0.00 | 0.00 | 0.00 | 62 | 1015.5 |
| 20260505163035 | 18 | 305 | 11.3 | 27.4 | 0.00 | 0.00 | 0.00 | 63 | 1015.5 |
| 20260505161648 | 18 | 298 | 9.7 | 24.1 | 0.00 | 0.00 | 0.00 | 65 | 1015.6 |
| 20260505160107 | 17 | 301 | 9.7 | 24.1 | 0.00 | 0.00 | 0.00 | 66 | 1015.6 |
| 20260505153035 | 17 | 302 | 9.7 | 24.1 | 0.00 | 0.00 | 0.00 | 70 | 1015.4 |
| 20260505140144 | 13 | 296 | 4.8 | 17.7 | 0.00 | 0.00 | 0.00 | 81 | 1014.7 |
| 20260505124530 | 13 | 307 | 6.4 | 14.5 | 0.00 | 0.00 | 0.00 | 79 | 1013.9 |
| 20260505123031 | 13 | 309 | 8.0 | 20.9 | 0.00 | 0.00 | 0.00 | 79 | 1013.7 |
| 20260505121608 | 13 | 305 | 6.4 | 17.7 | 0.00 | 0.00 | 0.00 | 79 | 1013.6 |
| 20260505120142 | 13 | 299 | 6.4 | 22.5 | 0.00 | 0.00 | 0.00 | 79 | 1013.4 |
| 20260505114532 | 13 | 317 | 6.4 | 17.7 | 0.00 | 0.00 | 0.00 | 79 | 1013.3 |
| 20260505111531 | 14 | 309 | 4.8 | 12.9 | 0.00 | 0.00 | 0.00 | 77 | 1013.2 |
| 20260505101535 | 15 | 307 | 6.4 | 20.9 | 0.00 | 0.00 | 0.00 | 76 | 1012.8 |
| 20260505100043 | 15 | 300 | 8.0 | 19.3 | 0.00 | 0.00 | 0.00 | 77 | 1012.6 |
| 20260505094534 | 15 | 313 | 4.8 | 19.3 | 0.00 | 0.00 | 0.00 | 77 | 1012.6 |
| 20260505093031 | 15 | 314 | 4.8 | 11.3 | 0.00 | 0.00 | 0.00 | 77 | 1012.5 |
| 20260505091530 | 15 | 319 | 4.8 | 12.9 | 0.00 | 0.00 | 0.00 | 77 | 1012.4 |
| 20260505090035 | 15 | 312 | 4.8 | 12.9 | 0.00 | 0.00 | 0.00 | 77 | 1012.3 |
| 20260505083034 | 16 | 322 | 4.8 | 11.3 | 0.00 | 0.00 | 0.00 | 76 | 1012.2 |
| 20260505081530 | 16 | 327 | 4.8 | 11.3 | 0.00 | 0.00 | 0.00 | 75 | 1012.2 |
| 20260505080145 | 16 | 318 | 4.8 | 11.3 | 0.00 | 0.00 | 0.00 | 74 | 1012.1 |
| 20260505074535 | 16 | 317 | 3.2 | 9.7 | 0.00 | 0.00 | 0.00 | 73 | 1012.0 |
| 20260505071605 | 17 | 320 | 4.8 | 14.5 | 0.00 | 0.00 | 0.00 | 70 | 1011.7 |
| 20260505070107 | 17 | 314 | 6.4 | 12.9 | 0.00 | 0.00 | 0.00 | 69 | 1011.6 |
| 20260505064532 | 17 | 31 | 3.2 | 11.3 | 0.00 | 0.00 | 0.00 | 65 | 1011.7 |
| 20260505063106 | 18 | 57 | 1.6 | 9.7 | 0.00 | 0.00 | 0.00 | 63 | 1011.6 |
| 20260505061643 | 18 | 302 | 4.8 | 22.5 | 0.00 | 0.00 | 0.00 | 62 | 1011.3 |
| 20260505060029 | 18 | 306 | 8.0 | 17.7 | 0.00 | 0.00 | 0.00 | 61 | 1011.1 |
| 20260505054536 | 19 | 316 | 8.0 | 14.5 | 0.00 | 0.00 | 0.00 | 58 | 1011.1 |
| 20260505053031 | 20 | 281 | 8.0 | 20.9 | 0.00 | 0.00 | 0.00 | 56 | 1011.0 |
| 20260505051534 | 19 | 277 | 8.0 | 22.5 | 0.00 | 0.00 | 0.00 | 57 | 1011.0 |
| 20260505041536 | 19 | 353 | 1.6 | 9.7 | 0.00 | 0.00 | 0.00 | 59 | 1010.5 |
| 20260505034530 | 20 | 313 | 1.6 | 9.7 | 0.00 | 0.00 | 0.00 | 57 | 1010.0 |
| 20260505033036 | 20 | 299 | 3.2 | 9.7 | 0.00 | 0.00 | 0.00 | 55 | 1009.7 |
| 20260505031533 | 21 | 282 | 4.8 | 17.7 | 0.00 | 0.00 | 0.00 | 54 | 1009.5 |
| 20260505030032 | 21 | 295 | 4.8 | 16.1 | 0.00 | 0.00 | 0.00 | 53 | 1009.3 |
| 20260505024531 | 22 | 300 | 4.8 | 14.5 | 0.00 | 0.00 | 0.00 | 52 | 1009.2 |
| 20260505023032 | 22 | 304 | 8.0 | 19.3 | 0.00 | 0.00 | 0.00 | 51 | 1009.1 |
| 20260505021533 | 23 | 305 | 9.7 | 19.3 | 0.00 | 0.00 | 0.00 | 50 | 1009.0 |
| 20260505020034 | 23 | 303 | 8.0 | 19.3 | 0.00 | 0.00 | 0.00 | 48 | 1009.1 |
| 20260505014537 | 24 | 302 | 8.0 | 20.9 | 0.00 | 0.00 | 0.00 | 47 | 1009.1 |
| 20260505013032 | 25 | 292 | 9.7 | 24.1 | 0.00 | 0.00 | 0.00 | 45 | 1009.1 |
| 20260505011530 | 26 | 287 | 9.7 | 22.5 | 0.00 | 0.00 | 0.00 | 42 | 1009.1 |
| 20260505010147 | 26 | 298 | 9.7 | 19.3 | 0.00 | 0.00 | 0.00 | 41 | 1009.1 |
| 20260505003031 | 27 | 299 | 9.7 | 24.1 | 0.00 | 0.00 | 0.00 | 40 | 1009.1 |
| 20260505001531 | 28 | 298 | 8.0 | 19.3 | 0.00 | 0.00 | 0.00 | 39 | 1009.2 |
| 20260505000034 | 28 | 291 | 9.7 | 20.9 | 0.00 | 0.00 | 0.00 | 39 | 1009.2 |
| 20260504234528 | 28 | 295 | 6.4 | 20.9 | 0.00 | 0.00 | 0.00 | 39 | 1009.2 |
| 20260504233031 | 28 | 296 | 9.7 | 19.3 | 0.00 | 0.00 | 0.00 | 39 | 1009.2 |
| 20260504231531 | 28 | 296 | 8.0 | 20.9 | 0.00 | 0.00 | 0.00 | 39 | 1009.3 |
| 20260504230037 | 28 | 301 | 8.0 | 22.5 | 0.00 | 0.00 | 0.00 | 39 | 1009.4 |